Location: Be Tobo
(6.6442°N, 10.6239°W)
Time: 01:31:37
(UTC+00:00)

MOS 1 Rocket - Pass Details

Date: 18 September 2020
Orbit: 614 x 831 km, 97.4° (Epoch: 21 October)

Event Time Altitude Azimuth Distance (km) Brightness Sun altitude
Rises 19:09:02 0° 22° (NNE) 2,881 6.3 -7.9°
Reaches altitude 10° 19:11:18 10° 30° (NNE) 1,968 5.4 -8.5°
Maximum altitude 19:15:19 41° 101° (E) 887 3.4 -9.5°
Drops below altitude 10° 19:19:21 10° 171° (S) 1,980 5.5 -10.5°
Sets 19:21:38 0° 178° (S) 2,901 6.5 -11.1°
